Weather observations for the past three days for
Huntsville, Madison County Executive Airport
Imperial (Metric)
Date Time (cdt) Wind (mph) Vis. (mi.) Weather Sky Cond. Temperature (ºF) Relative Humidity Wind Chill (°F) Heat Index (°F) Pressure Precipitation (in)
Air Dwpt 6 hour altimeter (in) sea level (mb) 1 hr 3 hr 6 hr
Max. Min.
23 20:35 Calm 0.00 NULL NULL 86 69.8 59% 91 0 0.0
23 19:35 W 8 10.00 Fair CLR 87.6 68.5 53% 92 29.87 0.0
23 18:55 W 10 10.00 Mostly Cloudy SCT070 BKN085 90 68 95.9 89.8 48% 94 29.88 0.0
23 18:35 W 12 10.00 Mostly Cloudy SCT080 BKN085 90 66.2 46% 93 29.88 0.0
23 18:15 W 12 10.00 Overcast BKN070 OVC100 90.5 65.3 43% 93 29.88 0.0
23 17:55 W 12 10.00 Mostly Cloudy SCT055 SCT070 BKN100 91.6 63.7 40% 93 29.88 0.0
23 17:35 SW 12 10.00 Mostly Cloudy SCT070 SCT080 BKN110 92.8 64 39% 95 29.88 0.0
23 17:15 W 10 10.00 Mostly Cloudy SCT060 SCT070 BKN110 92.8 63.7 38% 94 29.88 0.0
23 16:55 W 13 G 18 10.00 Partly Cloudy SCT060 SCT070 93.7 63.1 36% 95 29.88 0.0
23 16:35 W 8 10.00 Partly Cloudy SCT060 94.5 63.1 35% 96 29.89 0.0
23 16:15 SW 10 10.00 Partly Cloudy SCT060 93.2 63.1 37% 94 29.89 0.0
23 15:55 SW 9 10.00 Fair CLR 94.8 63.5 36% 96 29.9 0.0
23 15:35 SW 13 10.00 Partly Cloudy SCT055 94.3 63 35% 96 29.9 0.0
23 15:15 SW 13 G 18 10.00 Partly Cloudy SCT055 94.8 63.3 35% 96 29.91 0.0
23 14:55 W 9 10.00 Partly Cloudy SCT055 SCT065 93.2 63.1 37% 94 29.92 0.0
23 14:35 SW 12 10.00 Partly Cloudy SCT055 SCT080 93.6 62.6 36% 95 29.93 0.0
23 14:15 SW 13 G 20 10.00 Mostly Cloudy SCT050 SCT070 BKN080 92.7 62.4 37% 93 29.93 0.0
23 13:55 W 9 10.00 Mostly Cloudy SCT050 SCT060 BKN080 92.3 63.5 38% 94 29.94 0.0
23 13:35 W 15 10.00 Partly Cloudy SCT050 SCT060 SCT070 93 63.1 37% 94 29.95 0.0
23 13:15 SW 14 G 18 10.00 Partly Cloudy SCT050 SCT070 SCT080 93.6 63.7 37% 95 29.96 0.0
23 12:55 NW 10 10.00 Partly Cloudy SCT055 SCT065 92.1 64.4 93 72.9 40% 94 29.97 0.0
23 12:35 SW 10 10.00 Partly Cloudy SCT055 SCT070 SCT080 92.3 63.5 38% 94 29.97 0.0
23 12:15 W 13 10.00 Partly Cloudy SCT055 SCT070 SCT080 91.2 62.2 38% 92 29.98 0.0
23 11:55 W 9 10.00 Partly Cloudy SCT055 SCT080 91.2 61.3 37% 91 29.99 0.0
23 11:35 W 8 10.00 Partly Cloudy SCT055 SCT080 90.9 61.9 38% 91 29.99 0.0
23 11:15 SW 12 10.00 Partly Cloudy SCT055 90 61.5 39% 90 29.99 0.0
23 10:55 W 10 10.00 Fair CLR 89.8 63 41% 91 30 0.0
23 10:35 W 7 10.00 Fair CLR 89.2 63.5 42% 90 30 0.0
23 10:15 W 8 10.00 Fair CLR 88.3 63.5 44% 89 30 0.0
23 09:55 W 10 10.00 Fair CLR 87.6 64.9 47% 89 30 0.0
23 09:35 W 7 10.00 Fair CLR 86.5 65.7 50% 89 30 0.0
23 09:15 W 8 10.00 Fair CLR 85.5 65.7 52% 88 30 0.0
23 08:55 W 7 10.00 Fair CLR 84.2 66.9 56% 87 30 0.0
23 08:35 S 5 10.00 Fair CLR 82 66.7 60% 84 30 0.0
23 08:15 SW 5 10.00 Fair CLR 79.9 66.7 64% 82 30.01 0.0
23 07:55 SE 3 10.00 Fair CLR 77.9 66.7 69% 80 30 0.0
23 07:35 SE 3 10.00 Fair CLR 76.1 67.1 74% 78 30 0.0
23 07:15 E 3 10.00 Fair CLR 74.5 67.5 79% 30 0.0
23 06:55 SE 3 10.00 Fair CLR 72.7 66.9 72.9 68.2 82% 29.99 0.0
23 06:35 Calm 10.00 Fair CLR 70.3 67.5 91% 29.99 0.0
23 06:15 Calm 10.00 Fair CLR 69.3 67.3 93% 29.98 0.0
23 05:55 Calm 10.00 Fair CLR 69.4 67.1 92% 29.98 0.0
23 05:35 Calm 7.00 Fair CLR 69.1 67.5 95% 29.98 0.0
23 05:15 Calm 10.00 Fair CLR 69.8 67.8 93% 29.99 0.0
23 04:55 Calm 10.00 Fair CLR 69.6 68.2 95% 29.98 0.0
23 04:35 Calm 10.00 Partly Cloudy SCT075 68.7 67.3 95% 29.98 0.0
23 04:15 Calm 10.00 Mostly Cloudy BKN075 69.8 68 94% 29.98 0.0
23 03:55 Calm 10.00 Partly Cloudy SCT075 69.8 68 94% 29.99 0.0
23 03:35 Calm 10.00 Mostly Cloudy BKN075 69.8 67.6 93% 29.99 0.0
23 03:15 Calm 10.00 Mostly Cloudy BKN075 70.2 68.4 94% 29.99 0.0
23 02:55 Calm 10.00 Partly Cloudy SCT075 69.8 68 94% 29.99 0.0
23 02:35 Calm 10.00 Fair CLR 70 67.8 93% 29.99 0.0
23 02:15 Calm 10.00 Fair CLR 71.6 68 88% 29.99 0.0
23 01:55 Calm 10.00 Fair CLR 70.9 68.2 91% 30 0.0
23 01:35 Calm 10.00 Fair CLR 70.9 67.6 90% 30 0.0
23 01:15 Calm 10.00 Fair CLR 71.6 67.6 87% 30 0.0
23 00:55 Calm 10.00 Fair CLR 71.4 67.3 91.6 71.1 87% 30 0.0
23 00:35 Calm 10.00 Fair CLR 71.4 68 89% 30 0.0
23 00:15 Calm 10.00 Fair CLR 72.9 67.8 84% 30.01 0.0
22 23:55 Calm 10.00 Fair CLR 75.6 66.9 75% 77 30.01 0.0
22 23:35 Calm 10.00 Fair CLR 73.9 68 82% 30.01 0.0
22 23:15 Calm 10.00 Fair CLR 73.9 68.2 82% 30.01 0.0
22 22:55 Calm 10.00 Fair CLR 74.8 67.6 78% 30.01 0.0
22 22:35 Calm 10.00 Fair CLR 74.7 68 80% 30.01 0.0
22 22:15 Calm 10.00 Fair CLR 75.7 67.5 76% 77 30.02 0.0
22 21:55 Calm 10.00 Fair CLR 77.9 67.1 70% 80 30.02 0.0
22 21:35 Calm 10.00 Fair CLR 76.1 68.5 78% 77 30.01 0.0
22 21:15 Calm 10.00 Fair CLR 77.9 68 72% 80 30.01 0.0
22 20:55 Calm 10.00 Fair CLR 80.1 67.5 66% 83 30 0.0
22 20:35 Calm 10.00 Fair CLR 81.7 66.4 60% 84 30 0.0
22 20:15 Calm 10.00 Fair CLR 83.5 64.9 54% 85 30 0.0
22 19:55 Calm 10.00 Fair CLR 85.6 66.2 52% 88 30 0.0
22 19:35 N 3 10.00 Fair CLR 88 61.9 42% 88 30 0.0
22 19:15 W 5 10.00 Fair CLR 90.3 60.3 37% 90 30 0.0
22 18:55 W 5 10.00 Fair CLR 91.8 59.7 96.8 90.9 34% 91 30 0.0
22 18:35 SW 6 10.00 Fair CLR 92.8 58.8 32% 92 30 0.0
22 18:15 W 6 10.00 Fair CLR 92.8 58.3 31% 92 30 0.0
22 17:55 NW 5 10.00 Fair CLR 92.1 58.1 32% 91 30 0.0
22 17:35 W 7 10.00 Fair CLR 93.6 58.3 31% 93 30 0.0
22 17:15 W 8 10.00 Fair CLR 94.5 56.8 28% 93 30 0.0
22 16:55 S 7 10.00 Fair CLR 95.2 53.2 24% 93 30.01 0.0
22 16:35 S 8 10.00 Partly Cloudy SCT085 95.4 54.1 25% 93 30.01 0.0
22 16:15 W 6 10.00 Partly Cloudy SCT085 95.4 53.8 25% 93 30.02 0.0
22 15:55 SW 8 10.00 Fair CLR 95.4 55.9 27% 94 30.02 0.0
22 15:35 SW 5 10.00 Partly Cloudy SCT080 94.5 54.9 26% 92 30.03 0.0
22 15:15 NW 6 10.00 Partly Cloudy SCT080 94.6 56.3 28% 93 30.04 0.0
22 14:55 SW 8 10.00 Fair CLR 92.8 57.4 30% 92 30.05 0.0
22 14:35 SW 7 10.00 Fair CLR 95.4 56.1 27% 94 30.05 0.0
22 14:15 W 5 10.00 Fair CLR 94.3 57.4 29% 93 30.06 0.0
22 13:55 NW 5 10.00 Partly Cloudy SCT065 93 55.2 28% 91 30.06 0.0
22 13:35 S 8 10.00 Mostly Cloudy BKN065 91.8 56.5 30% 90 30.07 0.0
22 13:15 Calm 10.00 Partly Cloudy SCT065 SCT075 SCT090 92.5 57 30% 91 30.08 0.0
22 12:55 W 7 10.00 Partly Cloudy SCT065 SCT090 92.1 59.2 93.9 74.1 33% 91 30.09 0.0
22 12:35 W 6 10.00 Partly Cloudy SCT065 91.6 58.5 33% 91 30.1 0.0
22 12:15 SW 9 10.00 Partly Cloudy SCT065 91.4 58.8 34% 91 30.11 0.0
22 11:55 SW 6 10.00 Fair CLR 92.3 58.8 33% 92 30.11 0.0
22 11:35 Calm 10.00 Partly Cloudy SCT065 SCT090 90.1 59.9 36% 90 30.12 0.0
22 11:15 S 3 10.00 Partly Cloudy SCT065 88.2 61.5 41% 88 30.12 0.0
22 10:55 Calm 5.00 Fair with Haze CLR 90 62.8 40% 91 30.12 0.0
22 10:35 S 6 10.00 Partly Cloudy SCT045 89.2 64.9 45% 91 30.12 0.0
22 10:15 SE 5 7.00 Fair with Haze CLR 88.9 66.2 47% 91 30.13 0.0
22 09:55 S 6 10.00 Fair CLR 87.3 67.6 52% 91 30.13 0.0
22 09:35 SE 6 10.00 Fair CLR 85.8 67.8 55% 89 30.13 0.0
22 09:15 SE 6 10.00 Fair CLR 84.9 68.2 57% 88 30.14 0.0
22 08:55 SE 5 10.00 Fair CLR 83.5 68.9 62% 87 30.14 0.0
22 08:35 SE 5 7.00 Fair CLR 82.2 69.4 65% 86 30.15 0.0
22 08:15 Calm 10.00 Fair CLR 80.1 69.3 70% 83 30.15 0.0
22 07:55 SE 3 10.00 Fair CLR 77.9 69.1 74% 80 30.15 0.0
22 07:35 SE 3 10.00 Fair CLR 77.5 69.6 77% 79 30.15 0.0
22 07:15 E 3 10.00 Fair CLR 75.4 69.6 82% 76 30.15 0.0
22 06:55 Calm 10.00 Fair CLR 73.6 69.1 74.1 69.3 86% 30.15 0.0
22 06:35 Calm 10.00 Fair CLR 71.4 69.3 93% 30.15 0.0
22 06:15 Calm 10.00 Fair CLR 70.3 68.7 95% 30.14 0.0
22 05:55 Calm 10.00 Fair CLR 69.4 68 95% 30.14 0.0
22 05:35 Calm 7.00 Fair CLR 70.3 69.1 96% 30.14 0.0
22 05:15 Calm 10.00 Fair CLR 70.9 69.3 95% 30.14 0.0
22 04:55 Calm 10.00 Fair CLR 70.3 69.3 96% 30.14 0.0
22 04:35 Calm 10.00 Fair CLR 70.5 69.1 95% 30.14 0.0
22 04:15 Calm 10.00 Fair CLR 70.9 69.3 95% 30.14 0.0
22 03:55 Calm 10.00 Fair CLR 70.7 69.6 96% 30.14 0.0
22 03:35 Calm 10.00 Fair CLR 70.9 69.4 95% 30.13 0.0
22 03:15 Calm 10.00 Fair CLR 71.4 69.6 94% 30.13 0.0
22 02:55 Calm 10.00 Fair CLR 70.9 69.6 96% 30.13 0.0
22 02:35 Calm 10.00 Fair CLR 71.8 70.2 95% 30.13 0.0
22 02:15 Calm 10.00 Fair CLR 72.3 69.8 92% 30.13 0.0
22 01:55 Calm 10.00 Fair CLR 72.7 70.2 92% 30.13 0.0
22 01:35 Calm 10.00 Fair CLR 71.8 70 94% 30.13 0.0
22 01:15 Calm 10.00 Fair CLR 73.4 69.6 88% 30.14 0.0
22 00:55 Calm 10.00 Fair CLR 72.9 70.2 90.7 72.7 91% 30.14 0.0
22 00:35 Calm 10.00 Fair CLR 73.6 70.3 90% 30.14 0.0
22 00:15 Calm 10.00 Fair CLR 73.6 70 89% 30.14 0.0
21 23:55 Calm 10.00 Partly Cloudy SCT070 75.6 69.6 82% 76 30.15 0.0
21 23:35 Calm 10.00 Partly Cloudy SCT070 SCT080 74.1 69.8 86% 30.15 0.0
21 23:15 NW 3 10.00 Mostly Cloudy BKN070 BKN080 74.8 69.8 84% 30.15 0.0
21 22:55 Calm 10.00 Mostly Cloudy BKN075 75.4 70.2 84% 76 30.15 0.0
21 22:35 Calm 10.00 Fair CLR 76.3 69.6 80% 77 30.15 0.0
21 22:15 Calm 10.00 Fair CLR 76.5 69.8 80% 78 30.15 0.0
21 21:55 Calm 10.00 Fair CLR 79 69.4 73% 82 30.14 0.0
21 21:35 Calm 10.00 Fair CLR 77.4 68.4 74% 79 30.14 0.0
21 21:15 Calm 10.00 Fair CLR 78.1 68.2 72% 80 30.13 0.0
21 20:55 Calm 10.00 Fair CLR 77.9 67.8 71% 80 30.13 0.0
21 20:35 Calm 10.00 Fair CLR 80.1 67.3 65% 82 30.13 0.0
21 20:15 Calm 4.00 Fair with Haze CLR 80.4 68 66% 83 30.12 0.0
21 19:35 Calm 10.00 Fair CLR 85.5 68.5 57% 89 30.12 0.0
21 19:15 SE 3 10.00 Fair CLR 89.2 61.2 39% 89 30.12 0.0
21 18:55 SE 5 10.00 Fair CLR 90.5 61 94.5 87.4 37% 91 30.12 0.0
21 18:35 SE 6 10.00 Fair CLR 91 62.1 38% 92 30.13 0.0
21 18:15 E 3 10.00 Fair CLR 92.1 58.8 33% 91 30.13 0.0
21 17:55 NE 5 10.00 Fair CLR 91.9 59.2 33% 91 30.13 0.0
21 17:35 N 3 10.00 Fair CLR 91.8 59.7 34% 91 30.14 0.0
21 17:15 NE 5 10.00 Fair CLR 91.2 60.1 35% 91 30.14 0.0
21 16:55 E 7 10.00 Fair CLR 93.4 59 32% 93 30.15 0.0
21 16:35 Calm 10.00 Partly Cloudy SCT065 90.7 61 37% 91 30.15 0.0
21 16:15 NW 5 10.00 Fair CLR 93 60.1 33% 93 30.16 0.0
21 15:55 E 3 10.00 Fair CLR 92.7 60.1 34% 92 30.17 0.0
21 15:35 SE 5 10.00 Fair CLR 92.3 60.4 35% 92 30.17 0.0
21 15:15 N 6 10.00 Partly Cloudy SCT085 92.5 60.3 34% 92 30.17 0.0
21 14:55 SE 6 10.00 Fair CLR 91.6 60.8 36% 92 30.18 0.0
21 14:35 NE 6 10.00 Partly Cloudy SCT060 SCT070 SCT080 90.9 60.6 36% 91 30.19 0.0
21 14:15 E 3 10.00 Partly Cloudy SCT060 SCT080 90.1 60.6 37% 90 30.2 0.0
21 13:55 E 5 10.00 Partly Cloudy SCT070 SCT080 89.2 60.4 38% 89 30.2 0.0
21 13:35 W 7 10.00 Partly Cloudy SCT055 SCT065 SCT080 89.8 61.7 39% 90 30.21 0.0
21 13:15 SW 3 10.00 Partly Cloudy SCT055 SCT065 SCT080 87.8 60.4 40% 88 30.22 0.0
21 12:55 S 3 10.00 Mostly Cloudy SCT065 BKN070 89.1 61.3 90.9 69.4 40% 89 30.23 0.0
21 12:35 N 5 10.00 Mostly Cloudy BKN065 BKN080 87.6 61.3 41% 88 30.24 0.0
21 12:15 SE 5 10.00 Partly Cloudy SCT050 88.7 61.7 40% 89 30.24 0.0
21 11:55 NE 5 10.00 Fair CLR 88.9 61.9 41% 89 30.25 0.0
21 11:35 W 7 10.00 Fair CLR 87.6 61.7 42% 88 30.26 0.0
21 11:15 S 7 10.00 Partly Cloudy SCT060 SCT080 87.3 62.8 44% 88 30.26 0.0
21 10:55 SE 6 10.00 Mostly Cloudy BKN060 BKN070 87.4 65.3 48% 89 30.27 0.0
21 10:35 SE 7 10.00 Overcast BKN060 BKN070 OVC080 85.3 66.4 53% 88 30.27 0.0
21 10:15 SE 5 10.00 Mostly Cloudy BKN060 BKN070 84.9 64.2 50% 86 30.27 0.0
21 09:55 Calm 10.00 Mostly Cloudy BKN060 BKN070 84.7 62.4 47% 85 30.27 0.0
21 09:35 SE 3 10.00 Partly Cloudy SCT060 84 65.8 54% 86 30.27 0.0
21 09:15 S 3 10.00 Partly Cloudy SCT060 82.8 66.4 58% 85 30.28 0.0
21 08:55 SE 3 10.00 Partly Cloudy SCT060 82 66 58% 84 30.28 0.0
21 08:35 SE 3 10.00 Partly Cloudy SCT060 80.1 66.4 63% 82 30.28 0.0
21 08:15 SE 3 10.00 Partly Cloudy SCT060 77.2 66.4 69% 79 30.27 0.0
Date Time (cdt) Wind (mph) Vis. (mi.) Weather Sky Cond. Air Dwpt Max. Min. Relative Humidity Wind Chill (°F) Heat Index (°F) altimeter (in) sea level (mb) 1 hr 3 hr 6 hr
6 hour
Temperature (ºF) Pressure Precipitation (in)